Chariton, IA

6:34 AM CST on February 21, 2017 (GMT -0600)
Chariton Municipal

Weather History for KCNC - December, 2013

Change the Weather History Date:

Tuesday, December 3, 2013

  Actual Average Record
Temperature  
Mean Temperature 44 °F -  
Max Temperature 53 °F 38 °F 71 °F (2012)
Min Temperature 35 °F 20 °F -6 °F (1985)
Degree Days  
Heating Degree Days 21    
Moisture  
Dew Point 40 °F    
Average Humidity 93    
Maximum Humidity 100    
Minimum Humidity 67    
Precipitation  
Precipitation 0.00 in - - ()
Sea Level Pressure  
Sea Level Pressure 29.57 in    
Wind  
Wind Speed 7 mph (SSW)    
Max Wind Speed 13 mph    
Max Gust Speed 15 mph    
Visibility 2 miles    
Events Fog    
Averages and records for this station are not official NWS values.
T = Trace of Precipitation, MM = Missing Value Source: NWS Daily Summary

Daily Weather History Graph

Daily Weather History Graph

Search for Another Location

Airport or City:

Trip Planner

Search our weather history database for the weather conditions in past years. The results will help you decide how hot, cold, wet, or windy it might be!

Date:

Astronomy

Dec. 03, 2013 Rise Set
Actual Time 7:21 AM CST 4:45 PM CST
Civil Twilight 6:50 AM CST 5:16 PM CST
Nautical Twilight 6:16 AM CST 5:50 PM CST
Astronomical Twilight 5:43 AM CST 6:23 PM CST
Moon 7:51 AM CST (12/3) 5:49 PM CST (12/3)
Length of Visible Light 10h 25m
Length of Day
9h 24m
New Moon, 1% of the Moon is Illuminated
Dec 3
New Moon
Dec 9
First Quarter
Dec 17
Full
Dec 25
Last Quarter
Jan 1
New

Hourly Weather History & Observations

Time (CST) Temp. Windchill Dew Point Humidity Pressure Visibility Wind Dir Wind Speed Gust Speed Precip Events Conditions
12:15 AM 39.2 °F 33.6 °F 37.4 °F 93% 29.58 in 4.0 mi South 8.1 mph - N/A   Mostly Cloudy
12:35 AM 39.2 °F 33.0 °F 37.4 °F 93% 29.58 in 3.0 mi South 9.2 mph - N/A   Mostly Cloudy
12:55 AM 37.4 °F 32.1 °F 37.4 °F 100% 29.57 in 3.0 mi South 6.9 mph - N/A   Scattered Clouds
1:15 AM 37.4 °F 32.1 °F 37.4 °F 100% 29.57 in 2.5 mi South 6.9 mph - N/A   Mist
1:35 AM 39.2 °F 34.2 °F 37.4 °F 93% 29.56 in 3.0 mi South 6.9 mph - N/A   Mist
1:55 AM 37.4 °F 32.1 °F 37.4 °F 100% 29.56 in 3.0 mi South 6.9 mph - N/A   Scattered Clouds
2:15 AM 37.4 °F 32.1 °F 37.4 °F 100% 29.56 in 3.0 mi South 6.9 mph - N/A   Mist
2:35 AM 37.4 °F 33.8 °F 37.4 °F 100% 29.57 in 2.0 mi SSW 4.6 mph - N/A   Overcast
2:55 AM 37.4 °F 34.9 °F 37.4 °F 100% 29.58 in 2.5 mi SSW 3.5 mph - N/A   Overcast
3:15 AM 35.6 °F 30.7 °F 35.6 °F 100% 29.57 in 0.5 mi South 5.8 mph - N/A   Overcast
3:35 AM 37.4 °F 31.4 °F 37.4 °F 100% 29.56 in 1.5 mi SSE 8.1 mph - N/A   Overcast
3:55 AM 37.4 °F 30.8 °F 37.4 °F 100% 29.56 in 0.5 mi SSE 9.2 mph - N/A Fog Fog
4:15 AM 37.4 °F 32.1 °F 37.4 °F 100% 29.56 in 0.2 mi SSE 6.9 mph - N/A Fog Fog
4:35 AM 37.4 °F 32.1 °F 37.4 °F 100% 29.55 in 0.2 mi SSE 6.9 mph - N/A Fog Fog
4:55 AM 37.4 °F 31.4 °F 37.4 °F 100% 29.56 in 0.2 mi SSE 8.1 mph - N/A Fog Fog
5:15 AM 37.4 °F 31.4 °F 37.4 °F 100% 29.54 in 0.2 mi SSE 8.1 mph - N/A Fog Fog
5:35 AM 37.4 °F 32.8 °F 37.4 °F 100% 29.55 in 0.2 mi South 5.8 mph - N/A Fog Fog
5:55 AM 37.4 °F 32.1 °F 37.4 °F 100% 29.54 in 0.2 mi SSE 6.9 mph - N/A Fog Fog
6:15 AM 37.4 °F 32.1 °F 37.4 °F 100% 29.55 in 0.2 mi SSE 6.9 mph - N/A Fog Fog
6:35 AM 37.4 °F 32.1 °F 37.4 °F 100% 29.56 in 0.2 mi SSE 6.9 mph - N/A Fog Fog
6:55 AM 37.4 °F 31.4 °F 37.4 °F 100% 29.55 in 0.2 mi SSE 8.1 mph - N/A Fog Fog
7:15 AM 37.4 °F 32.1 °F 37.4 °F 100% 29.55 in 0.2 mi SSE 6.9 mph - N/A Fog Fog
7:35 AM 37.4 °F 32.8 °F 37.4 °F 100% 29.55 in 0.2 mi South 5.8 mph - N/A Fog Fog
7:55 AM 37.4 °F 32.1 °F 37.4 °F 100% 29.54 in 0.2 mi SSE 6.9 mph - N/A Fog Fog
8:15 AM 39.2 °F 33.6 °F 39.2 °F 100% 29.54 in 0.2 mi SSE 8.1 mph - N/A   Overcast
8:35 AM 39.2 °F 33.0 °F 39.2 °F 100% 29.55 in 0.2 mi South 9.2 mph - N/A Fog Fog
8:55 AM 39.2 °F 33.0 °F 39.2 °F 100% 29.54 in 0.2 mi SSE 9.2 mph - N/A Fog Fog
9:15 AM 41.0 °F 35.2 °F 41.0 °F 100% 29.56 in 0.2 mi South 9.2 mph - N/A Fog Fog
9:35 AM 41.0 °F 36.4 °F 41.0 °F 100% 29.56 in 1.0 mi South 6.9 mph - N/A   Overcast
9:55 AM 42.8 °F 38.0 °F 42.8 °F 100% 29.56 in 1.2 mi South 8.1 mph 15.0 mph N/A   Overcast
10:15 AM 42.8 °F 38.6 °F 42.8 °F 100% 29.57 in 1.8 mi Variable 6.9 mph 12.7 mph N/A   Overcast
10:35 AM 42.8 °F 38.6 °F 42.8 °F 100% 29.57 in 2.0 mi South 6.9 mph - N/A   Mostly Cloudy
10:55 AM 42.8 °F - 42.8 °F 100% 29.57 in 2.5 mi Calm Calm - N/A   Overcast
11:15 AM 44.6 °F - 42.8 °F 93% 29.57 in 3.0 mi Calm Calm - N/A   Overcast
11:35 AM 44.6 °F - 42.8 °F 93% 29.56 in 3.0 mi Calm Calm - N/A   Mostly Cloudy
11:55 AM 48.2 °F - 42.8 °F 82% 29.56 in 4.0 mi Variable 4.6 mph 11.5 mph N/A   Haze
12:15 PM 48.2 °F - 42.8 °F 82% 29.55 in 5.0 mi WSW 6.9 mph - N/A   Haze
12:35 PM 50.0 °F - 42.8 °F 76% 29.54 in 6.0 mi SSW 4.6 mph - N/A   Haze
12:55 PM 51.8 °F - 42.8 °F 71% 29.54 in 6.0 mi SW 8.1 mph - N/A   Haze
1:15 PM 51.8 °F - 42.8 °F 71% 29.53 in 7.0 mi Variable 4.6 mph - N/A   Clear
1:35 PM 53.6 °F - 42.8 °F 67% 29.52 in 7.0 mi South 6.9 mph - N/A   Clear
1:55 PM 53.6 °F - 42.8 °F 67% 29.51 in 8.0 mi SSW 5.8 mph - N/A   Clear
2:15 PM 53.6 °F - 42.8 °F 67% 29.51 in 9.0 mi SSW 5.8 mph - N/A   Clear
2:35 PM 53.6 °F - 42.8 °F 67% 29.51 in 8.0 mi Calm Calm - N/A   Clear
2:55 PM 53.6 °F - 42.8 °F 67% 29.51 in 9.0 mi Calm Calm - N/A   Clear
3:15 PM 53.6 °F - 42.8 °F 67% 29.52 in 9.0 mi Calm Calm - N/A   Clear
3:35 PM 51.8 °F - 41.0 °F 67% 29.54 in 9.0 mi NW 3.5 mph - N/A   Clear
3:55 PM 51.8 °F - 41.0 °F 67% 29.55 in 9.0 mi NW 6.9 mph - N/A   Clear
4:15 PM 46.4 °F 40.7 °F 41.0 °F 81% 29.56 in 6.0 mi North 12.7 mph - N/A   Haze
4:35 PM 44.6 °F 39.7 °F 41.0 °F 87% 29.58 in 4.0 mi North 9.2 mph - N/A   Clear
4:55 PM 42.8 °F 37.0 °F 39.2 °F 87% 29.59 in 4.0 mi North 10.4 mph - N/A   Scattered Clouds
5:15 PM 41.0 °F 36.4 °F 39.2 °F 93% 29.60 in 4.0 mi North 6.9 mph - N/A   Partly Cloudy
5:35 PM 41.0 °F 35.8 °F 39.2 °F 93% 29.61 in 4.0 mi North 8.1 mph - N/A   Mostly Cloudy
5:55 PM 41.0 °F 37.1 °F 39.2 °F 93% 29.60 in 3.0 mi North 5.8 mph - N/A   Overcast
6:15 PM 41.0 °F 36.4 °F 39.2 °F 93% 29.60 in 3.0 mi North 6.9 mph - N/A   Mist
6:35 PM 41.0 °F 36.4 °F 39.2 °F 93% 29.61 in 2.5 mi North 6.9 mph - N/A   Mist
6:55 PM 41.0 °F 37.1 °F 39.2 °F 93% 29.62 in 2.0 mi North 5.8 mph - N/A   Mist
7:15 PM 41.0 °F 37.1 °F 39.2 °F 93% 29.62 in 1.8 mi NNW 5.8 mph - N/A   Mist
7:35 PM 41.0 °F 36.4 °F 39.2 °F 93% 29.62 in 1.5 mi NNW 6.9 mph - N/A   Overcast
7:55 PM 41.0 °F 35.8 °F 39.2 °F 93% 29.62 in 0.8 mi NNW 8.1 mph - N/A   Overcast
8:15 PM 41.0 °F 37.1 °F 39.2 °F 93% 29.62 in 0.5 mi North 5.8 mph - N/A Fog Fog
8:35 PM 41.0 °F 35.8 °F 39.2 °F 93% 29.62 in 0.2 mi North 8.1 mph - N/A Fog Fog
8:55 PM 39.2 °F 33.6 °F 39.2 °F 100% 29.62 in 0.2 mi NNW 8.1 mph - N/A Fog Fog
9:15 PM 39.2 °F 33.0 °F 39.2 °F 100% 29.62 in 0.5 mi NNW 9.2 mph - N/A Fog Fog
9:35 PM 39.2 °F 34.2 °F 39.2 °F 100% 29.62 in 0.5 mi North 6.9 mph - N/A Fog Fog
9:55 PM 39.2 °F 34.2 °F 39.2 °F 100% 29.63 in 0.2 mi North 6.9 mph - N/A Fog Fog
10:15 PM 39.2 °F 35.0 °F 39.2 °F 100% 29.63 in 0.2 mi North 5.8 mph - N/A Fog Fog
10:35 PM 39.2 °F 34.2 °F 39.2 °F 100% 29.63 in 0.2 mi NNW 6.9 mph - N/A Fog Fog
10:55 PM 39.2 °F 34.2 °F 39.2 °F 100% 29.63 in 0.2 mi NNW 6.9 mph - N/A Fog Fog
11:15 PM 39.2 °F 33.6 °F 39.2 °F 100% 29.64 in 0.2 mi NNW 8.1 mph - N/A Fog Fog
11:35 PM 39.2 °F 35.9 °F 39.2 °F 100% 29.63 in 0.2 mi North 4.6 mph - N/A Fog Fog
11:55 PM 39.2 °F 35.0 °F 39.2 °F 100% 29.64 in 0.2 mi NNW 5.8 mph - N/A Fog Fog